Regional Weather Roundup
Issued by NWS Bismarck, ND

Home | Current Version | Previous Version | Text Only | Print | Product List | Glossary On
Versions: 1 2 3 4 5 6 7 8 9 10 11 12 13 14 15 16 17 18 19 20 21 22 23 24 25 26 27 28 29 30 31 32 33 34 35 36 37 38 39 40 41 42 43 44 45 46 47 48 49 50
000
ASUS43 KBIS 201710
RWRBIS

NWR BROADCAST TEXT
NATIONAL WEATHER SERVICE BISMARCK ND
1200 PM CDT WED AUG 20 2014

NOTE: "FAIR" INDICATES FEW OR NO CLOUDS BELOW 12,000 FEET WITH NO
SIGNIFICANT WEATHER AND/OR OBSTRUCTIONS TO VISIBILITY.


CITY           SKY/WX    TMP DP  RH WIND       PRES   REMARKS
WILLISTON      CLOUDY    73  64  73 CALM      29.67R
MINOT          PTSUNNY   81  63  54 SW6       29.71R
MINOT AFB      PTSUNNY   77  67  71 E7        29.70S
BISMARCK       CLOUDY    76  66  71 SE10      29.73R
DICKINSON      CLOUDY    74  62  66 W7        29.70R
GARRISON         N/A     74  66  76 SE10      29.72R
HETTINGER ARPT CLOUDY    74  65  73 E12       29.72S
JAMESTOWN      PTSUNNY   77  66  68 SE13      29.76S
BEACH            N/A     75  59  57 SE6       29.73S
CARRINGTON     FAIR      75  72  88 S16G24    29.76F
CROSBY         FAIR      75  68  78 NE5       29.67S
HARVEY         FAIR      81  68  65 SE13G20   29.73S
HAZEN          FAIR      73  64  73 SE13      29.72R
LINTON         FAIR      77  68  73 SE12      29.73F
MANDAN         FAIR      73  63  68 S14G20    29.74R
STANLEY        FAIR      72  68  88 E10       29.71S
TIOGA          FAIR      66  66 100 E7        29.73R
WATFORD CITY   FAIR      75  63  64 E13       29.66R
$$

CITY           SKY/WX    TMP DP  RH WIND       PRES   REMARKS
GRAND FORKS    PTSUNNY   80  66  62 S13       29.77S
GRAND FORKS AF MOSUNNY   79  69  72 S13       29.78S
DEVILS LAKE    MOSUNNY   81  64  57 S15       29.75R
FARGO          PTSUNNY   81  66  60 SE10      29.78F
CANDO          FAIR      81  68  65 S12G20    29.76R
CAVALIER       FAIR      77  66  69 S14       29.77R
GRAFTON        FAIR      79  66  65 SE10G18   29.77S
GWINNER        SUNNY     79  70  73 SE10      29.79S
LANGDON        FAIR      82  64  54 SE15G23   29.78R
ROLLA            N/A     79  68  69 S16G23    29.76S
WALHALLA       FAIR      81  68  65 S15         N/A
$$

CITY           SKY/WX    TMP DP  RH WIND       PRES   REMARKS
ABERDEEN       CLOUDY    80  67  64 SE13      29.75F
MOBRIDGE       PTSUNNY   80  66  62 SE18G24   29.69F
BUFFALO          N/A     74  63  68 S7        29.65F
RAPID CITY     PTSUNNY   79  63  57 SE6       29.75S
GLASGOW        CLOUDY    68  60  75 NW15      29.73R
SIDNEY         CLOUDY    72  64  78 SW3       29.69R
WOLF POINT     PTSUNNY   75  54  47 W7        29.69R
GLENDIVE       CLOUDY    68  54  60 W23       29.70S
MILES CITY     LGT RAIN  69  59  70 N9        29.74S
BAKER          CLOUDY    76  60  57 CALM      29.74R
$$

CITY           SKY/WX    TMP DP  RH WIND       PRES   REMARKS
BILLINGS       CLOUDY    74  47  38 NW10      29.87R
GREAT FALLS    MOSUNNY   73  47  39 W7        29.84S
REGINA         CLOUDY    68  64  88 W5        29.67R
ESTEVAN        CLOUDY    70  63  78 SE9       29.69
$$




USA.gov is the U.S. government's official web portal to all federal, state and local government web resources and services.